SCP
0 0 0 0 0 0 0 0 0 0 0 0 0 0 0 0 0 0 0 0 0 0 0 0 0 0 0 0 0 0 0 0 0 0 0 0 0 0 0 0 0 0 0 0
0 0 0 0 0 0 0 0 0 0 0 0 0 0 0 0 0 0 0 0 0 0 0 0 0 0 0 0 0 0 0 0 0 0 0 0 0 0 0 0 0 0 0 0
0 0 0 0 0 0 0 0 0 0 0 0 0 0 0 0 0 0 0 0 0 0 0 0 0 0 0 0 0 0 0 0 0 0 0 0 0 0 0 0 0 0 0 0
0 0 0 0 0 0 0 0 0 0 0 0 0 0 0 0 0 0 0 0 0 0 0 0 0 0 0 0 0 0 0 0 0 0 0 0 0 0 0 0 0 0 0 0
0 0 0 0 0 0 0 0 0 0 0 0 0 0 0 0 0 0 0 0 0 0 0 0 0 0 0 0 0 0 0 0 0 0 0 0 0 0 0 0 0 0 0 0
0 0 0 0 0 0 0 0 0 0 0 0 0 0 0 0 0 0 0 0 0 0 0 0 0 0 0 0 0 0 0 0 0 0 0 0 0 0 0 0 0 0 0 0
0 0 0 0 0 0 0 0 0 0 0 0 0 0 0 0 0 0 0 0 0 0 0 0 0 0 0 0 0 0 0 0 0 0 0 0 0 0 0 0 0 0 0 0
0 0 0 0 0 0 0 0 0 0 0 0 0 0 0 0 0 0 0 0 0 0 0 0 0 0 -0 -0 -0 -0 0 -0 0 0 0 0 0 0 0 0 0 0 0 0
0 0 0 0 0 0 0 0 0 0 0 0 0 0 0 0 0 0 0 0 0 0 0 0 0 0 0 -0 0 0 0 0 0 0 0 0 0 0 0 0 0 0 0 0
0 0 0 0 0 0 0 0 0 0 0 0 0 0 0 0 0 0 0 0 0 0 0 0 0 0 0 0 0 0 0 0 0 -0 0 0 0 0 0 0 0 0 0 0
0 0 0 0 0 0 0 0 0 0 0 0 0 0 0 0 0 0 0 0 -0 -0 -0 -0 0 0 0 0 0 0 0 0 -0 -0 0 0 0 0 0 0 0 0 0 0
0 0 0 0 0 0 0 0 0 0 0 0 0 0 0 0 0 0 0 -0 -0 -0 -0 -0 -0 -0 -0 -0 -0 -0 -0 0 -0 -0 -0 0 -0 0 0 0 0 0 0 0
0 0 0 0 0 0 0 0 0 0 0 0 0 0 0 0 0 0 -0 -0 0 -0 -0 0 0 -0 -0 -0 -0 0 0 0 -0 -0 0 0 0 0 0 0 0 0 0 0
0 0 0 0 0 0 0 0 0 0 0 0 0 0 0 0 0 0 0 0 0 0 0 0 0 0 0 0 0 0 0 0 0 -0 0 0 0 0 0 0 0 0 0 0
0 0 0 0 0 0 0 0 0 0 0 0 0 0 0 0 0 0 0 0 0 0 0 0 0 0 0 0 0 0 0 0 0 -0 -0 0 0 -0 0 0 0 0 0 0
0 0 0 0 0 0 0 0 0 0 0 0 0 0 0 0 0 0 0 0 0 0 0 0 0 0 0 0 0 0 0 0 0 0 0 0 -0 -0 0 0 0 0 0 0
0 0 0 0 0 0 0 0 0 0 0 0 0 0 0 0 0 0 0 0 0 0 0 0 0 0 0 0 0 0 0 0 0 0 -0 -0 -0 -0 -0 0 0 0 0 0
0 0 0 0 0 0 0 0 0 0 0 0 0 0 0 0 0 0 0 0 0 0 0 0 0 0 0 0 0 0 0 0 0 0 -0 -0 -0 -0 -0 0 0 0 0 0
0 0 0 0 0 0 0 0 0 0 0 0 0 0 0 0 0 0 0 0 0 0 0 0 0 -0 0 -0 0 0 0 0 0 0 0 -0 -0 -0 -0 0 0 0 0 0
0 0 0 0 0 0 0 0 0 0 0 0 0 0 0 0 0 0 0 0 0 -0 0 -0 0 0 0 0 0 0 0 0 0 0 -0 -0 -0 -0 -0 0 0 0 0 0
0 0 0 0 0 0 0 0 0 0 0 0 0 0 0 0 0 0 0 0 0 0 0 0 0 0 0 0 0 0 0 0 0 0 -0 -0 -0 -0 -0 0 0 0 0 0
0 0 0 0 0 0 0 0 0 0 0 0 0 0 0 0 0 0 0 0 0 -0 -0 0 0 0 0 0 0 0 0 0 0 0 0 -0 -0 -0 -0 -0 0 0 0 -0
0 0 0 0 0 0 0 0 0 0 0 0 0 0 0 0 0 0 0 0 0 0 -0 0 0 0 0 0 0 0 0 0 0 0 0 -0 -0 -0 -0 -0 -0 -0 -0 -0
0 0 0 0 0 0 0 0 0 0 0 0 0 0 0 0 0 0 0 -0 -0 -0 -0 0 0 0 0 0 0 0 0 0 0 0 0 -0 -0 -0 -0 -0 -0 -0 -0 -0
0 0 0 0 0 0 0 0 0 0 0 0 0 0 0 0 0 0 -0 -0 0 0 0 0 0 0 0 0 0 0 0 0 0 0 0 0 -0 -0 -0 -0 -0 -0 -0 -0
0 0 0 0 0 0 0 0 0 0 0 0 0 0 0 0 0 0 0 0 0 0 0 0 0 0 0 0 0 0 0 0 0 0 0 0 0 0 -0 -0 -0 0 -0 0
Wind_Speed_500mb
4 6 13 16 13 5 4 5 8 6 3 4 10 20 41 31 34 40 53 48 36 33 34 33 33 32 29 23 24 24 23 21 19 19 30 40 46 47 45 39 38 40 43 44
6 13 8 5 6 7 5 3 10 7 1 3 8 28 42 14 10 8 16 1 14 23 29 31 38 35 27 25 24 21 19 21 24 31 40 48 52 53 53 46 44 46 50 55
12 3 6 7 5 7 6 8 5 8 9 4 16 15 10 8 4 9 17 13 20 34 40 39 34 26 22 18 13 13 20 27 35 44 51 56 57 57 56 54 53 52 54 56
10 1 8 5 7 10 6 3 3 4 8 6 8 8 13 10 12 6 12 22 29 32 31 30 27 20 13 7 10 19 29 37 44 51 59 61 61 61 60 62 66 65 64 66
6 8 6 6 6 3 5 4 5 5 7 8 10 8 14 8 13 9 5 13 19 20 22 23 17 7 3 5 18 30 39 43 50 57 58 58 58 60 66 71 75 75 74 72
1 1 1 3 6 6 10 7 9 7 6 4 8 8 10 7 9 13 5 13 14 15 20 19 12 4 4 14 27 34 40 46 55 57 55 57 63 71 77 76 77 78 76 72
2 2 3 1 6 4 5 8 6 8 5 9 1 5 13 12 9 5 13 18 15 16 18 13 7 10 19 28 31 37 48 55 54 51 55 62 70 73 73 76 77 71 67 62
10 8 9 4 4 9 10 11 9 11 4 6 10 9 1 6 6 30 38 33 26 17 11 3 8 30 28 24 33 47 51 49 48 53 61 64 66 70 71 71 67 64 62 58
9 4 2 3 2 2 7 6 7 13 3 6 4 9 6 8 7 25 26 23 17 9 1 11 19 38 33 37 46 48 45 45 51 59 65 64 64 67 68 65 62 58 53 52
7 5 2 1 2 2 4 5 6 4 1 6 8 9 10 12 10 8 10 24 20 11 20 24 32 28 34 45 45 40 41 46 53 61 66 65 65 67 64 60 54 48 47 49
6 6 2 3 10 12 1 2 2 4 7 9 3 11 10 17 16 10 17 14 16 16 24 29 25 32 43 37 32 33 38 46 55 63 66 66 68 67 61 56 49 47 48 50
6 7 6 6 3 4 4 7 9 7 9 3 6 11 7 16 15 19 11 16 18 23 20 20 23 25 28 29 30 35 42 51 59 67 68 68 70 67 59 54 48 46 50 54
11 1 4 12 7 3 8 9 7 8 5 10 9 10 2 8 9 11 29 42 30 18 24 27 30 34 37 39 40 44 49 55 61 68 69 69 67 62 59 53 47 49 54 59
9 5 12 14 10 9 9 10 11 11 6 6 14 11 17 15 8 17 39 34 15 15 26 29 33 38 41 43 47 49 50 55 62 70 68 68 65 60 55 49 46 48 51 56
9 11 9 7 5 1 7 12 15 15 11 13 21 20 30 14 11 14 44 23 8 20 30 35 41 45 47 48 49 53 53 56 64 72 69 66 61 57 50 48 49 48 50 51
2 6 5 7 5 6 13 24 17 22 27 29 36 50 34 35 47 37 25 20 20 19 29 30 36 42 47 50 51 53 54 55 61 71 69 64 60 56 49 47 49 47 50 52
12 11 5 9 6 9 18 29 33 28 15 35 31 51 8 15 17 31 32 25 17 16 26 29 36 42 45 45 48 51 50 51 59 68 67 62 58 56 51 50 45 45 47 49
13 12 7 7 6 10 12 5 12 32 34 31 26 12 18 25 22 14 19 10 8 19 24 27 31 40 42 43 48 51 45 46 57 64 65 61 55 52 50 47 44 44 45 48
9 9 6 9 11 15 29 13 15 15 22 28 31 34 53 33 19 19 11 3 11 15 18 24 31 39 45 45 49 50 42 44 53 63 62 59 53 53 50 46 45 43 45 47
19 18 16 6 11 19 6 5 5 8 28 21 37 33 22 30 11 9 10 2 9 9 11 24 32 37 42 46 47 52 45 43 49 60 58 55 50 50 51 50 47 45 45 47
19 22 32 31 20 15 16 15 23 16 9 4 26 48 20 13 23 35 4 14 21 23 19 27 32 36 42 43 47 50 48 42 44 54 55 51 48 46 47 48 48 45 41 40
19 14 15 9 15 30 21 9 17 12 8 3 2 4 14 21 20 5 23 32 23 21 23 26 31 38 41 45 47 48 49 42 40 46 53 48 47 45 44 44 45 38 34 32
11 15 10 18 14 8 33 11 27 10 16 7 10 6 5 18 31 38 38 37 34 36 31 27 38 45 48 53 50 49 42 45 40 39 47 44 41 41 38 38 42 37 30 26
10 9 16 6 18 14 31 36 17 13 10 8 20 27 26 31 36 43 43 42 38 32 29 36 48 57 63 62 56 52 43 41 39 35 39 36 34 34 37 35 35 39 36 27
17 20 23 9 28 8 24 28 23 12 11 18 33 34 38 43 54 58 65 64 59 61 52 51 54 63 72 70 59 53 46 40 38 36 32 31 26 25 31 35 32 31 31 29
17 19 18 21 30 12 15 34 29 24 46 56 46 48 58 59 69 72 78 82 76 73 61 61 65 67 73 71 63 53 47 43 41 40 33 30 26 22 20 26 28 26 22 25
Wind_Direction_500mb
171 102 216 222 206 184 165 215 245 275 102 300 251 275 282 293 270 273 278 273 255 244 229 214 201 197 198 207 204 197 198 205 222 272 305 311 316 318 317 304 289 278 274 273
46 228 218 163 169 198 183 188 268 285 96 360 346 288 276 289 263 309 328 276 183 167 157 165 179 183 197 200 199 202 216 235 255 287 306 314 314 314 311 305 293 282 274 268
175 188 156 177 187 177 219 194 217 213 330 30 331 293 315 315 357 47 56 112 142 147 147 151 163 182 190 198 208 235 249 261 273 290 303 308 307 306 306 302 297 291 285 279
226 179 178 181 208 148 225 170 95 70 56 240 9 273 313 332 333 57 82 112 128 138 145 151 158 160 163 188 253 262 270 277 286 296 303 307 309 310 310 307 304 300 296 292
245 163 175 179 200 204 200 99 106 90 92 63 335 88 270 339 357 12 111 122 132 138 143 141 131 118 158 280 297 288 288 293 298 302 306 307 308 308 307 305 302 300 298 295
133 28 77 148 79 65 137 85 47 59 94 28 239 134 300 360 320 311 86 137 123 125 156 145 135 54 305 303 310 301 299 302 306 309 309 310 310 308 307 307 305 304 302 300
27 254 312 164 110 68 113 80 329 345 6 221 69 52 243 303 320 311 99 87 120 143 145 146 97 9 324 297 284 292 299 304 307 308 308 308 308 306 306 307 306 304 304 304
164 302 174 190 226 182 175 162 164 217 196 255 354 248 322 312 351 94 100 102 111 138 148 54 331 337 321 299 299 305 307 310 311 312 313 313 309 306 306 307 306 305 304 304
153 215 163 101 37 118 174 195 138 105 68 54 251 278 327 7 78 83 94 88 71 98 250 304 319 325 317 311 310 312 312 316 318 318 317 315 313 311 311 309 307 306 308 311
196 119 209 116 84 61 182 156 85 6 188 264 284 276 197 198 147 122 106 81 26 329 297 304 308 299 304 310 313 316 317 320 323 324 323 322 321 318 314 310 310 311 312 313
139 109 236 83 200 180 50 234 149 120 157 181 210 259 214 174 170 128 87 30 4 358 328 313 304 302 311 317 318 318 319 325 327 329 328 327 324 321 315 310 309 311 312 314
177 132 171 193 306 289 232 222 168 139 236 225 145 270 228 171 175 85 52 1 348 347 354 352 335 337 333 331 324 324 327 331 332 333 332 330 328 325 319 312 310 313 310 313
186 247 53 348 353 359 222 199 157 109 83 198 151 254 82 168 197 350 350 349 353 27 16 360 350 345 342 340 333 331 330 330 330 333 333 333 330 326 321 315 310 308 310 313
144 156 169 187 194 140 191 200 186 148 127 189 228 273 285 257 300 339 334 323 339 14 358 351 347 343 336 332 332 328 325 325 330 332 333 333 332 328 324 319 314 314 317 317
144 199 163 251 257 208 214 210 195 192 189 193 256 235 249 254 206 267 309 291 286 346 354 353 348 342 337 331 325 324 323 325 331 333 333 332 330 325 322 322 317 319 320 319
204 237 113 304 315 261 262 251 209 221 224 238 256 262 258 273 279 280 249 253 264 326 329 331 335 336 333 331 328 324 323 325 330 333 332 331 329 328 321 315 315 320 320 316
156 137 117 256 2 50 300 243 220 233 200 220 232 247 272 252 228 239 247 244 251 306 322 323 329 331 331 330 329 326 322 324 330 333 332 334 335 330 327 322 323 322 320 321
144 143 174 200 139 221 239 175 200 218 238 217 246 264 236 232 240 224 248 206 279 319 323 325 335 339 337 333 330 330 324 324 330 333 336 338 340 333 331 327 325 323 324 322
171 143 183 172 207 300 290 239 174 169 253 215 226 242 248 254 215 219 152 185 297 314 334 341 340 344 344 335 334 333 325 321 329 334 338 341 342 336 332 328 326 324 323 320
200 218 188 150 188 213 233 203 222 121 266 211 202 229 241 158 180 224 161 318 287 248 322 339 343 338 343 341 338 335 327 318 326 334 338 342 345 341 338 334 330 322 320 319
206 204 218 220 227 271 222 198 138 173 252 293 229 246 185 188 210 176 145 319 305 284 288 331 333 333 342 337 333 336 326 318 321 331 335 342 344 343 339 338 335 330 323 319
174 182 212 204 220 249 175 102 190 195 222 213 98 267 204 193 149 260 318 320 316 292 274 322 335 339 337 338 324 325 329 313 313 326 332 342 346 343 339 341 346 341 330 326
193 186 184 183 211 208 190 212 221 208 153 119 95 71 352 298 299 307 308 309 304 296 279 299 319 332 340 337 328 314 322 315 306 315 327 340 349 349 348 355 2 3 357 344
244 167 213 101 232 223 227 234 242 171 172 308 316 305 300 300 301 301 303 307 298 288 279 294 309 317 320 333 325 318 309 306 302 300 316 333 354 357 360 0 5 17 16 6
206 152 214 259 250 150 220 220 214 231 253 300 309 298 297 301 298 302 305 304 299 294 282 282 298 306 310 316 319 317 307 296 294 290 296 313 334 358 357 5 2 18 26 19
189 206 206 231 238 201 215 238 245 284 298 297 291 288 285 286 287 290 288 287 287 283 278 283 292 300 304 301 310 302 304 290 285 285 275 290 304 324 343 359 4 8 24 45
Wind_Speed_850mb
4 6 13 16 13 5 4 5 8 6 3 4 10 20 41 31 34 40 53 48 36 33 34 33 33 32 29 23 24 24 23 21 19 19 30 40 46 47 45 39 38 40 43 44
6 13 8 5 6 7 5 3 10 7 1 3 8 28 42 14 10 8 16 1 14 23 29 31 38 35 27 25 24 21 19 21 24 31 40 48 52 53 53 46 44 46 50 55
12 3 6 7 5 7 6 8 5 8 9 4 16 15 10 8 4 9 17 13 20 34 40 39 34 26 22 18 13 13 20 27 35 44 51 56 57 57 56 54 53 52 54 56
10 1 8 5 7 10 6 3 3 4 8 6 8 8 13 10 12 6 12 22 29 32 31 30 27 20 13 7 10 19 29 37 44 51 59 61 61 61 60 62 66 65 64 66
6 8 6 6 6 3 5 4 5 5 7 8 10 8 14 8 13 9 5 13 19 20 22 23 17 7 3 5 18 30 39 43 50 57 58 58 58 60 66 71 75 75 74 72
1 1 1 3 6 6 10 7 9 7 6 4 8 8 10 7 9 13 5 13 14 15 20 19 12 4 4 14 27 34 40 46 55 57 55 57 63 71 77 76 77 78 76 72
2 2 3 1 6 4 5 8 6 8 5 9 1 5 13 12 9 5 13 18 15 16 18 13 7 10 19 28 31 37 48 55 54 51 55 62 70 73 73 76 77 71 67 62
10 8 9 4 4 9 10 11 9 11 4 6 10 9 1 6 6 30 38 33 26 17 11 3 8 30 28 24 33 47 51 49 48 53 61 64 66 70 71 71 67 64 62 58
9 4 2 3 2 2 7 6 7 13 3 6 4 9 6 8 7 25 26 23 17 9 1 11 19 38 33 37 46 48 45 45 51 59 65 64 64 67 68 65 62 58 53 52
7 5 2 1 2 2 4 5 6 4 1 6 8 9 10 12 10 8 10 24 20 11 20 24 32 28 34 45 45 40 41 46 53 61 66 65 65 67 64 60 54 48 47 49
6 6 2 3 10 12 1 2 2 4 7 9 3 11 10 17 16 10 17 14 16 16 24 29 25 32 43 37 32 33 38 46 55 63 66 66 68 67 61 56 49 47 48 50
6 7 6 6 3 4 4 7 9 7 9 3 6 11 7 16 15 19 11 16 18 23 20 20 23 25 28 29 30 35 42 51 59 67 68 68 70 67 59 54 48 46 50 54
11 1 4 12 7 3 8 9 7 8 5 10 9 10 2 8 9 11 29 42 30 18 24 27 30 34 37 39 40 44 49 55 61 68 69 69 67 62 59 53 47 49 54 59
9 5 12 14 10 9 9 10 11 11 6 6 14 11 17 15 8 17 39 34 15 15 26 29 33 38 41 43 47 49 50 55 62 70 68 68 65 60 55 49 46 48 51 56
9 11 9 7 5 1 7 12 15 15 11 13 21 20 30 14 11 14 44 23 8 20 30 35 41 45 47 48 49 53 53 56 64 72 69 66 61 57 50 48 49 48 50 51
2 6 5 7 5 6 13 24 17 22 27 29 36 50 34 35 47 37 25 20 20 19 29 30 36 42 47 50 51 53 54 55 61 71 69 64 60 56 49 47 49 47 50 52
12 11 5 9 6 9 18 29 33 28 15 35 31 51 8 15 17 31 32 25 17 16 26 29 36 42 45 45 48 51 50 51 59 68 67 62 58 56 51 50 45 45 47 49
13 12 7 7 6 10 12 5 12 32 34 31 26 12 18 25 22 14 19 10 8 19 24 27 31 40 42 43 48 51 45 46 57 64 65 61 55 52 50 47 44 44 45 48
9 9 6 9 11 15 29 13 15 15 22 28 31 34 53 33 19 19 11 3 11 15 18 24 31 39 45 45 49 50 42 44 53 63 62 59 53 53 50 46 45 43 45 47
19 18 16 6 11 19 6 5 5 8 28 21 37 33 22 30 11 9 10 2 9 9 11 24 32 37 42 46 47 52 45 43 49 60 58 55 50 50 51 50 47 45 45 47
19 22 32 31 20 15 16 15 23 16 9 4 26 48 20 13 23 35 4 14 21 23 19 27 32 36 42 43 47 50 48 42 44 54 55 51 48 46 47 48 48 45 41 40
19 14 15 9 15 30 21 9 17 12 8 3 2 4 14 21 20 5 23 32 23 21 23 26 31 38 41 45 47 48 49 42 40 46 53 48 47 45 44 44 45 38 34 32
11 15 10 18 14 8 33 11 27 10 16 7 10 6 5 18 31 38 38 37 34 36 31 27 38 45 48 53 50 49 42 45 40 39 47 44 41 41 38 38 42 37 30 26
10 9 16 6 18 14 31 36 17 13 10 8 20 27 26 31 36 43 43 42 38 32 29 36 48 57 63 62 56 52 43 41 39 35 39 36 34 34 37 35 35 39 36 27
17 20 23 9 28 8 24 28 23 12 11 18 33 34 38 43 54 58 65 64 59 61 52 51 54 63 72 70 59 53 46 40 38 36 32 31 26 25 31 35 32 31 31 29
17 19 18 21 30 12 15 34 29 24 46 56 46 48 58 59 69 72 78 82 76 73 61 61 65 67 73 71 63 53 47 43 41 40 33 30 26 22 20 26 28 26 22 25
Wind_Direction_850mb
171 102 216 222 206 184 165 215 245 275 102 300 251 275 282 293 270 273 278 273 255 244 229 214 201 197 198 207 204 197 198 205 222 272 305 311 316 318 317 304 289 278 274 273
46 228 218 163 169 198 183 188 268 285 96 360 346 288 276 289 263 309 328 276 183 167 157 165 179 183 197 200 199 202 216 235 255 287 306 314 314 314 311 305 293 282 274 268
175 188 156 177 187 177 219 194 217 213 330 30 331 293 315 315 357 47 56 112 142 147 147 151 163 182 190 198 208 235 249 261 273 290 303 308 307 306 306 302 297 291 285 279
226 179 178 181 208 148 225 170 95 70 56 240 9 273 313 332 333 57 82 112 128 138 145 151 158 160 163 188 253 262 270 277 286 296 303 307 309 310 310 307 304 300 296 292
245 163 175 179 200 204 200 99 106 90 92 63 335 88 270 339 357 12 111 122 132 138 143 141 131 118 158 280 297 288 288 293 298 302 306 307 308 308 307 305 302 300 298 295
133 28 77 148 79 65 137 85 47 59 94 28 239 134 300 360 320 311 86 137 123 125 156 145 135 54 305 303 310 301 299 302 306 309 309 310 310 308 307 307 305 304 302 300
27 254 312 164 110 68 113 80 329 345 6 221 69 52 243 303 320 311 99 87 120 143 145 146 97 9 324 297 284 292 299 304 307 308 308 308 308 306 306 307 306 304 304 304
164 302 174 190 226 182 175 162 164 217 196 255 354 248 322 312 351 94 100 102 111 138 148 54 331 337 321 299 299 305 307 310 311 312 313 313 309 306 306 307 306 305 304 304
153 215 163 101 37 118 174 195 138 105 68 54 251 278 327 7 78 83 94 88 71 98 250 304 319 325 317 311 310 312 312 316 318 318 317 315 313 311 311 309 307 306 308 311
196 119 209 116 84 61 182 156 85 6 188 264 284 276 197 198 147 122 106 81 26 329 297 304 308 299 304 310 313 316 317 320 323 324 323 322 321 318 314 310 310 311 312 313
139 109 236 83 200 180 50 234 149 120 157 181 210 259 214 174 170 128 87 30 4 358 328 313 304 302 311 317 318 318 319 325 327 329 328 327 324 321 315 310 309 311 312 314
177 132 171 193 306 289 232 222 168 139 236 225 145 270 228 171 175 85 52 1 348 347 354 352 335 337 333 331 324 324 327 331 332 333 332 330 328 325 319 312 310 313 310 313
186 247 53 348 353 359 222 199 157 109 83 198 151 254 82 168 197 350 350 349 353 27 16 360 350 345 342 340 333 331 330 330 330 333 333 333 330 326 321 315 310 308 310 313
144 156 169 187 194 140 191 200 186 148 127 189 228 273 285 257 300 339 334 323 339 14 358 351 347 343 336 332 332 328 325 325 330 332 333 333 332 328 324 319 314 314 317 317
144 199 163 251 257 208 214 210 195 192 189 193 256 235 249 254 206 267 309 291 286 346 354 353 348 342 337 331 325 324 323 325 331 333 333 332 330 325 322 322 317 319 320 319
204 237 113 304 315 261 262 251 209 221 224 238 256 262 258 273 279 280 249 253 264 326 329 331 335 336 333 331 328 324 323 325 330 333 332 331 329 328 321 315 315 320 320 316
156 137 117 256 2 50 300 243 220 233 200 220 232 247 272 252 228 239 247 244 251 306 322 323 329 331 331 330 329 326 322 324 330 333 332 334 335 330 327 322 323 322 320 321
144 143 174 200 139 221 239 175 200 218 238 217 246 264 236 232 240 224 248 206 279 319 323 325 335 339 337 333 330 330 324 324 330 333 336 338 340 333 331 327 325 323 324 322
171 143 183 172 207 300 290 239 174 169 253 215 226 242 248 254 215 219 152 185 297 314 334 341 340 344 344 335 334 333 325 321 329 334 338 341 342 336 332 328 326 324 323 320
200 218 188 150 188 213 233 203 222 121 266 211 202 229 241 158 180 224 161 318 287 248 322 339 343 338 343 341 338 335 327 318 326 334 338 342 345 341 338 334 330 322 320 319
206 204 218 220 227 271 222 198 138 173 252 293 229 246 185 188 210 176 145 319 305 284 288 331 333 333 342 337 333 336 326 318 321 331 335 342 344 343 339 338 335 330 323 319
174 182 212 204 220 249 175 102 190 195 222 213 98 267 204 193 149 260 318 320 316 292 274 322 335 339 337 338 324 325 329 313 313 326 332 342 346 343 339 341 346 341 330 326
193 186 184 183 211 208 190 212 221 208 153 119 95 71 352 298 299 307 308 309 304 296 279 299 319 332 340 337 328 314 322 315 306 315 327 340 349 349 348 355 2 3 357 344
244 167 213 101 232 223 227 234 242 171 172 308 316 305 300 300 301 301 303 307 298 288 279 294 309 317 320 333 325 318 309 306 302 300 316 333 354 357 360 0 5 17 16 6
206 152 214 259 250 150 220 220 214 231 253 300 309 298 297 301 298 302 305 304 299 294 282 282 298 306 310 316 319 317 307 296 294 290 296 313 334 358 357 5 2 18 26 19
189 206 206 231 238 201 215 238 245 284 298 297 291 288 285 286 287 290 288 287 287 283 278 283 292 300 304 301 310 302 304 290 285 285 275 290 304 324 343 359 4 8 24 45